User: anonymous   Login
Location: Fort Wayne
(41.1310°N, 85.1290°W)
Time: 22:43:06
(UTC-04:00)
Language:

Cosmos 2219 Rocket - Orbit

View from above orbital plane
View from above orbital plane
View from above satellite
View from above satellite

Ground track
Ground track

The orbit data is extracted from the following two-line orbital elements,

1 22220U 92076B   18169.56839367 -.00000245 +00000-0 -98877-4 0  9990
2 22220 071.0002 008.0229 0010710 071.3991 351.3776 14.16433030322329
Epoch (UTC): 18 June 2018 13:38:29
Eccentricity: 0.0010710
inclination: 71.0002°
perigee height: 830 km
apogee height: 845 km
right ascension of ascending node: 8.0229°
argument of perigee: 71.3991°
revolutions per day: 14.16433030
mean anomaly at epoch: 351.3776°
orbit number at epoch: 32232

The dashed part of the orbit path shows where the satellite is in the earth's shadow,  

DLR